Location: Unspecified
(44.0704°N, 88.6889°W)
Time: 21:54:15
(UTC+02:00)

Tiangong 2 - Visible Passes

Search period start: 24 May 2019 00:00
Search period end: 03 June 2019 00:00
Orbit: 379 x 387 km, 42.8° (Epoch: 24 May)

Date Brightness Start Highest point End Pass type
(mag) Time Alt. Az. Time Alt. Az. Time Alt. Az.
24 May 0.9 05:19:17 10° W 05:22:24 70° S 05:22:56 55° ESE visible
25 May 1.0 04:19:17 10° W 04:22:24 69° S 04:25:31 10° E visible
25 May 2.4 05:55:57 10° W 05:57:48 30° WSW 05:57:48 30° WSW visible
26 May 1.0 04:55:54 10° W 04:59:01 63° S 05:00:24 29° ESE visible
27 May 2.0 05:32:36 10° W 05:35:08 34° SW 05:35:08 34° SW visible
28 May 1.3 04:32:31 10° W 04:35:35 50° SSW 04:37:41 18° ESE visible
28 May 3.9 06:09:49 10° WSW 06:09:51 10° WSW 06:09:51 10° WSW visible
29 May 2.4 05:09:22 10° W 05:12:00 25° SSW 05:12:23 24° SSW visible
30 May 1.9 04:09:09 10° W 04:12:05 37° SSW 04:14:56 10° SE visible
31 May 3.1 04:46:19 10° WSW 04:48:24 16° SSW 04:49:40 13° S visible
02 Jun 3.7 04:24:20 10° SW 04:24:43 10° SW 04:25:05 10° SSW visible
